www.pogodaiklimat.ru

Погода и климат >> Архив погоды >> Австрия >> Личау


ПОГОДА в Личау

  • Прогноз погоды в Личау
  • Монитор погоды в Личау

АРХИВ ПОГОДЫ в Личау

Время (UTC), дата Ветер
(напр.,м/с)
 
Видим.   Явления Облачность Т
(С)
Тd
(С)
f
(%)
Тe
(С)
Тes
(С)
Комфортность P
(гПа)
Po
(гПа)
Тmin
(С)
Tmax
(С)
R
(мм)
R24
(мм)
S
(см)
19 10.06 ЮВ 2 н/о н/о +23.4 +16.9 67 +29 +29 душно 1009.6 947.7
20 10.06 ЮВ 1 н/о н/о +22.4 +16.9 71 +27 +27 душно 1009.5 947.4
21 10.06 ЮВ 1 н/о н/о +21.7 +16.8 74 +26 +26 душно 1009.9 947.6
22 10.06 ЮЗ 1 н/о н/о +21.0 +16.7 76 +26 +26 душно 1010.3 947.8
23 10.06 В 1 н/о н/о +20.0 +16.4 80 +24 +24 комфорт 1010.6 947.9
00 11.06 В 1 н/о н/о +19.1 +16.2 83 +22 +22 комфорт 1010.2 947.3
01 11.06 ЮВ 1 н/о н/о +18.8 +15.9 83 +21 +21 комфорт 1009.7 946.8
02 11.06 ЮВ 1 н/о н/о +18.8 +15.5 81 +21 +21 комфорт 1009.5 946.6
03 11.06 ЮВ 1 н/о н/о +19.2 +15.2 78 +22 +22 комфорт 1009.8 946.9
04 11.06 Ю 2 н/о н/о +19.0 +15.2 79 +21 +21 комфорт 1009.7 946.8
05 11.06 Ю 1 10 км ясно +19.7 +15.8 78 +23 +25 комфорт 1009.4 946.7
06 11.06 ЮВ 1 10 км ясно +21.8 +16.4 71 +26 +31 душно 1009.4 947.1 +18.2 +24.7
07 11.06 ЮВ 2 н/о н/о +23.5 +17.1 67 +27 +27 душно 1009.3 947.4
08 11.06 ЮВ 2 н/о н/о +25.2 +17.8 64 +30 +30 душно 1009.2 947.7
09 11.06 ЮВ 3 н/о н/о +26.4 +16.8 56 +30 +30 душно 1009.2 947.9
10 11.06 ЮВ 3 н/о н/о +27.3 +16.6 52 +31 +31 душно 1009.0 947.9
11 11.06 Ю 2 н/о н/о +28.4 +16.8 49 +32 +32 душно 1008.7 947.8
12 11.06 ЮВ 2 10 км 5/0
[Ci sp]
+29.0 +17.8 51 +33 +49 очень
душно
1008.1 947.4
13 11.06 ЮВ 3 н/о н/о +29.1 +17.0 48 +33 +33 очень
душно
1007.8 947.1
14 11.06 ЮВ 3 н/о н/о +28.6 +17.9 52 +33 +33 очень
душно
1007.7 946.9
15 11.06 ЮВ 3 10 км 5/0
[Ci sp]
+28.4 +17.7 52 +33 +39 очень
душно
1007.5 946.7
16 11.06 ЮВ 3 н/о н/о +27.1 +17.2 55 +31 +31 душно 1007.4 946.3
17 11.06 ЮВ 3 н/о н/о +26.2 +17.3 58 +30 +30 душно 1007.7 946.4
18 11.06 ЮВ 3 н/о н/о +25.2 +16.9 60 +29 +29 душно 1008.0 946.5 +21.5 +29.6
19 11.06 ЮВ 2 н/о н/о +24.4 +16.5 61 +28 +28 душно 1008.6 946.9
20 11.06 ЮВ 2 н/о н/о +23.4 +16.1 64 +28 +28 душно 1009.2 947.3
21 11.06 ЮВ 1 н/о н/о +22.6 +15.9 66 +27 +27 душно 1009.8 947.7
22 11.06 ЮВ 1 н/о н/о +21.8 +16.0 70 +26 +26 душно 1009.4 947.1
23 11.06 ЮВ 1 н/о н/о +20.9 +15.9 73 +25 +25 комфорт 1008.9 946.5
00 12.06 В 1 н/о н/о +20.1 +15.6 75 +24 +24 комфорт 1008.6 946.0
01 12.06 ЮВ 1 н/о н/о +19.7 +15.0 74 +23 +23 комфорт 1009.0 946.3
02 12.06 ЮВ 1 н/о н/о +19.1 +14.2 73 +21 +21 комфорт 1008.8 946.0
03 12.06 ЮВ 1 н/о н/о +18.2 +13.8 75 +20 +20 1009.5 946.4
04 12.06 ЮВ 1 н/о н/о +18.4 +14.5 78 +20 +20 1009.4 946.4
05 12.06 ЮВ 1 н/о н/о +19.6 +16.0 80 +23 +23 комфорт 1009.3 946.6
06 12.06 ЮВ 1 н/о н/о +21.2 +16.2 73 +25 +25 комфорт 1009.0 946.6 +17.9 +25.4
07 12.06 ЮВ 2 н/о н/о +22.6 +16.7 69 +27 +27 душно 1008.4 946.4
08 12.06 ЮВ 2 н/о н/о +25.2 +16.7 59 +29 +29 душно 1008.0 946.5
09 12.06 ЮВ 2 10 км ясно +26.6 +14.8 48 +29 +44 жарко 1007.4 946.2
10 12.06 Ю 3 н/о н/о +28.0 +12.2 38 +29 +29 жарко 1007.0 946.0
11 12.06 ЮВ 3 н/о н/о +28.5 +13.7 40 +30 +30 жарко 1007.1 946.2
12 12.06 ЮВ 3 10 км 5/5 1000 м
[Cu hum]
+29.2 +14.2 40 +31 +38 жарко 1006.5 945.8 0.0
13 12.06 ЮВ 3 н/о н/о +29.6 +14.5 40 +32 +32 душно 1006.2 945.6
14 12.06 ЮВ 3 н/о н/о +30.1 +14.8 39 +32 +32 жарко 1005.7 945.3
15 12.06 ЮВ 3 10 км 6/3 1000 м
[Cu med, cong Ci fib]
+29.8 +13.9 38 +32 +36 душно 1005.7 945.2
16 12.06 ЮВ 3 н/о н/о +29.2 +14.5 41 +31 +31 жарко 1005.5 944.9
17 12.06 ЮВ 2 н/о н/о +28.1 +15.9 47 +31 +31 душно 1006.1 945.3
18 12.06 ЮВ 2 н/о н/о +26.9 +16.3 52 +30 +31 душно 1006.7 945.6 +20.8 +30.3 0.0
19 12.06 Ю 1 н/о н/о +25.2 +16.7 59 +29 +29 душно 1007.8 946.3
20 12.06 СЗ 3 н/о н/о +22.3 +15.7 66 +26 +26 жарко 1010.1 947.9
21 12.06 СЗ 2 н/о н/о +20.5 +15.4 73 +24 +24 комфорт 1011.2 948.5
22 12.06 З 1 н/о н/о +19.5 +15.3 77 +22 +22 комфорт 1011.6 948.7
23 12.06 З 1 н/о н/о +18.6 +15.0 80 +21 +21 комфорт 1011.7 948.6
00 13.06 СЗ 1 н/о н/о +17.2 +14.6 85 +18 +18 1012.0 948.6
01 13.06 СЗ 1 н/о н/о +16.3 +14.2 87 +17 +17 1012.2 948.6
02 13.06 СЗ 1 н/о н/о +15.2 +13.7 91 +16 +16 1012.7 948.8
03 13.06 СЗ 1 н/о н/о +15.5 +14.0 91 +16 +16 1012.7 948.9
04 13.06 СЗ 1 н/о н/о +15.2 +13.5 90 +16 +16 1013.7 949.7
05 13.06 СЗ 1 10 км 5/0
[Ci sp]
+16.1 +13.6 85 +17 +19 1014.0 950.2
06 13.06 С 1 н/о н/о +17.1 +13.7 80 +18 +19 1014.4 950.8 +15.1 +27.0
07 13.06 СЗ 1 н/о н/о +17.8 +13.8 77 +19 +19 1014.4 950.9
08 13.06 СЗ 2 н/о н/о +19.3 +14.1 72 +21 +21 комфорт 1014.1 951.0
09 13.06 штиль 0 10 км 8/8 600 м
[Cu Sc]
+21.3 +13.8 62 +24 +28 комфорт 1013.7 951.0
10 13.06 С 1 н/о н/о +23.1 +15.1 61 +27 +27 душно 1013.2 950.9
11 13.06 В 1 н/о н/о +23.5 +14.7 58 +26 +26 жарко 1012.9 950.7
12 13.06 В 1 10 км 5/5 1000 м
[Cu med, cong]
+25.3 +15.9 56 +29 +39 душно 1012.0 950.3
13 13.06 С 1 н/о н/о +26.2 +15.2 51 +29 +29 жарко 1011.5 950.0
14 13.06 С 1 н/о н/о +26.8 +14.6 47 +29 +29 жарко 1011.3 949.9
15 13.06 В 2 н/о н/о +26.3 +15.9 53 +30 +30 душно 1011.1 949.6
16 13.06 ЮВ 1 н/о н/о +26.4 +15.5 51 +29 +29 жарко 1010.6 949.2
17 13.06 ЮВ 1 н/о н/о +26.1 +15.9 53 +29 +29 жарко 1010.7 949.2
18 13.06 В 1 н/о н/о +25.0 +16.5 59 +28 +29 жарко 1010.7 949.0 +16.8 +27.5
19 13.06 СЗ 1 н/о н/о +21.9 +17.3 75 +26 +26 душно 1012.0 949.6
20 13.06 С 1 н/о н/о +22.0 +17.6 76 +27 +27 душно 1012.6 950.2 0.0
21 13.06 С 1 н/о н/о +21.2 +16.9 76 +25 +25 комфорт 1013.8 951.2 0.0
22 13.06 С 1 н/о н/о +20.1 +16.9 82 +24 +24 комфорт 1015.3 952.3
23 13.06 СЗ 1 н/о н/о +19.5 +16.7 84 +23 +23 комфорт 1015.7 952.6 0.0
00 14.06 С 2 н/о н/о +19.5 +16.5 83 +22 +22 комфорт 1016.2 953.0 0.0
01 14.06 штиль 0 н/о н/о +17.6 +14.6 83 +18 +18 1017.1 953.4
02 14.06 С 1 н/о н/о +16.5 +14.6 89 +17 +17 1017.3 953.4
03 14.06 С 1 н/о н/о +15.4 +14.2 93 +16 +16 1018.3 954.1
04 14.06 штиль 0 н/о н/о +15.3 +14.1 93 +15 +15 1019.0 954.7
05 14.06 СЗ 1 10 км 3/3 1000 м
[Cu hum]
+17.8 +16.1 90 +19 +21 1019.0 955.3
06 14.06 С 1 10 км 3/3 1000 м
[Cu hum]
+19.7 +16.4 81 +23 +27 комфорт 1018.9 955.6 +15.1 +25.2 0.0
07 14.06 С 1 н/о н/о +21.6 +15.2 67 +25 +25 комфорт 1018.9 956.0
08 14.06 СЗ 1 н/о н/о +23.6 +14.9 58 +26 +26 жарко 1018.5 956.0
09 14.06 В 1 н/о н/о +25.3 +13.6 48 +27 +27 жарко 1017.9 955.7
10 14.06 ЮВ 2 н/о н/о +25.5 +15.5 54 +29 +29 душно 1017.9 955.8
11 14.06 ЮВ 2 н/о н/о +26.3 +17.3 58 +30 +30 душно 1017.3 955.5
12 14.06 ЮВ 2 н/о н/о +27.3 +16.7 52 +31 +31 душно 1016.4 954.8
13 14.06 В 1 н/о н/о +28.3 +17.5 52 +32 +32 душно 1015.8 954.5
14 14.06 ЮВ 2 н/о н/о +28.9 +16.6 47 +32 +32 душно 1015.2 954.0
15 14.06 ЮВ 2 10 км ясно +28.9 +15.0 43 +31 +39 жарко 1014.7 953.5
16 14.06 ЮВ 2 н/о н/о +28.3 +16.1 48 +32 +32 душно 1014.3 953.0
17 14.06 В 2 н/о н/о +27.8 +16.7 51 +31 +31 душно 1014.4 953.0
18 14.06 ЮВ 1 10 км ясно +26.1 +15.8 53 +29 +30 жарко 1014.2 952.5 +19.2 +29.2
19 14.06 ЮВ 2 н/о н/о +24.6 +16.5 61 +28 +28 душно 1014.1 952.1
20 14.06 В 2 н/о н/о +23.7 +16.4 64 +27 +27 жарко 1014.1 951.9
21 14.06 В 3 н/о н/о +23.5 +16.6 65 +27 +27 душно 1013.8 951.6
22 14.06 ЮВ 3 н/о н/о +23.0 +16.5 67 +28 +28 душно 1013.6 951.3
23 14.06 ЮВ 2 н/о н/о +22.1 +16.8 72 +26 +26 душно 1013.2 950.8
00 15.06 ЮВ 2 н/о н/о +21.3 +16.7 75 +25 +25 комфорт 1012.9 950.3
01 15.06 Ю 1 н/о н/о +21.0 +16.5 75 +26 +26 душно 1012.6 950.0
02 15.06 ЮВ 2 н/о н/о +20.6 +16.0 75 +24 +24 комфорт 1012.0 949.3
03 15.06 ЮВ 1 н/о н/о +20.1 +15.9 77 +24 +24 комфорт 1012.0 949.2 0.0
04 15.06 ЮВ 1 н/о н/о +20.2 +15.7 75 +24 +24 комфорт 1011.9 949.1
05 15.06 ЮВ 1 10 км 8/8 600 м
[Cu Sc]
+21.0 +15.7 72 +26 +26 душно 1011.7 949.1
06 15.06 ЮВ 1 10 км 8/8 600 м
[Cu Sc]
+22.3 +15.9 67 +26 +27 жарко 1011.3 949.0 +19.9 +26.3 0.0
07 15.06 ЮВ 1 н/о н/о +23.9 +16.8 64 +27 +27 жарко 1011.2 949.3
08 15.06 ЮВ 2 н/о н/о +26.6 +16.3 53 +30 +30 душно 1010.7 949.3
09 15.06 ЮВ 2 10 км 5/5 1000 м
[Cu med, cong]
+27.8 +16.0 49 +31 +39 душно 1010.0 948.9
10 15.06 В 1 н/о н/о +27.0 +17.8 57 +31 +31 душно 1011.1 949.8
11 15.06 ЮВ 1 н/о н/о +28.5 +18.8 56 +34 +34 очень
душно
1010.4 949.5
12 15.06 ЮВ 1 10 км 5/5 1000 м
[Cu med, cong]
+29.4 +15.9 44 +32 +42 душно 1010.4 949.6
13 15.06 ЮВ 1 н/о н/о +30.8 +15.1 39 +33 +33 душно 1009.8 949.3
14 15.06 З 1 н/о н/о +30.0 +12.2 33 +31 +31 жарко 1009.9 949.1
15 15.06 Ю 2 10 км 5/5 1000 м
[Cu med, cong]
+30.2 +14.0 37 +32 +36 жарко 1009.1 948.5
16 15.06 ЮВ 1 н/о н/о +29.1 +14.4 41 +31 +31 жарко 1009.0 948.2
17 15.06 ЮВ 1 н/о н/о +24.0 +15.7 60 +27 +27 жарко 1011.3 949.3
18 15.06 Ю 1 5000 м в посл. час гроза {ливн. осадки} 9/9 300 м
[Cb cap]
+21.2 +17.1 77 +25 +25 комфорт 1012.5 949.9 +21.2 +31.6 0.7
19 15.06 З 2 н/о н/о +19.5 +15.9 80 +22 +22 комфорт 1012.5 949.6 0.0
20 15.06 СЗ 2 н/о н/о +20.8 +15.8 73 +25 +25 комфорт 1013.4 950.7
21 15.06 С 3 н/о н/о +20.1 +15.5 75 +23 +23 комфорт 1013.8 950.9 0.0
22 15.06 Ю 1 н/о осадки н/о +18.5 +16.2 86 +20 +20 1014.4 951.1 0.3
23 15.06 СЗ 1 н/о в посл. час осадки н/о +18.2 +15.7 85 +20 +20 1014.5 951.2 0.1
00 16.06 СЗ 1 н/о {осадки} н/о +17.4 +15.7 90 +18 +18 1014.8 951.3 0.4
01 16.06 штиль 0 н/о н/о +16.3 +15.3 94 +16 +16 1014.8 951.0
02 16.06 штиль 0 н/о н/о +15.9 +15.2 96 +16 +16 1014.9 951.0
03 16.06 З 1 н/о н/о +16.7 +15.9 95 +18 +18 1015.2 951.5
04 16.06 СЗ 1 н/о в посл. час осадки н/о +16.3 +15.9 97 +17 +17 1016.5 952.6 2
05 16.06 С 2 10 км {ливн. осадки} 8/8 600 м
[Cu Sc]
+16.8 +16.0 95 +17 +17 1016.5 952.7 0.1
06 16.06 С 2 н/о {ливн. осадки} н/о +17.8 +16.2 90 +18 +18 1016.8 953.2 +15.6 +22.9 3
07 16.06 С 1 н/о н/о +19.4 +16.3 82 +22 +22 комфорт 1016.9 953.7
08 16.06 С 2 н/о н/о +18.8 +15.9 83 +20 +20 1017.5 954.1
09 16.06 С 3 н/о н/о +19.1 +16.0 82 +21 +21 комфорт 1018.1 954.7
10 16.06 С 2 н/о н/о +16.9 +14.5 86 +17 +17 1019.4 955.4
11 16.06 С 2 н/о н/о +16.5 +13.2 81 +17 +17 1020.3 956.2
12 16.06 С 2 10 км 8/8 600 м
[Cu Sc]
+18.2 +12.4 69 +19 +22 1020.0 956.2
13 16.06 СЗ 2 н/о н/о +19.6 +14.0 70 +22 +22 комфорт 1019.4 956.0
14 16.06 СЗ 2 н/о н/о +20.8 +14.2 66 +24 +24 комфорт 1018.9 955.8
15 16.06 С 2 10 км 8/8 600 м
[Cu Sc]
+19.5 +13.4 68 +22 +23 комфорт 1019.3 955.9
16 16.06 СЗ 2 н/о н/о +19.7 +12.4 63 +22 +22 комфорт 1019.0 955.6
17 16.06 С 2 н/о н/о +19.4 +12.8 66 +21 +21 комфорт 1019.8 956.3
18 16.06 С 1 10 км 8/8 600 м
[Cu Sc]
+19.1 +13.4 70 +21 +21 комфорт 1020.4 956.8 +16.2 +20.9
19 16.06 СЗ 1 н/о н/о +17.5 +13.1 75 +19 +19 1020.5 956.6
20 16.06 СЗ 1 н/о н/о +15.4 +13.0 86 +16 +16 1021.1 956.7
21 16.06 СЗ 1 н/о н/о +14.4 +12.5 88 +15 +15 1022.1 957.4
22 16.06 С 1 н/о н/о +14.8 +12.9 88 +15 +15 1022.3 957.7
23 16.06 С 1 н/о н/о +14.0 +12.2 89 +14 +14 1022.2 957.4
00 17.06 СЗ 1 н/о н/о +12.6 +11.5 93 +13 +13 1022.4 957.3
01 17.06 штиль 0 н/о н/о +11.9 +11.0 94 +11 +11 1022.8 957.5
02 17.06 штиль 0 н/о н/о +11.3 +10.6 95 +11 +11 1023.0 957.5
03 17.06 штиль 0 н/о н/о +10.7 +10.1 96 +10 +10 1023.1 957.5
04 17.06 штиль 0 н/о н/о +11.0 +10.4 96 +10 +10 1023.2 957.6
05 17.06 штиль 0 10 км 5/0
[Ci sp]
+13.4 +12.0 91 +13 +15 1022.8 957.8
06 17.06 штиль 0 10 км 5/0
[Ci sp]
+16.4 +12.4 77 +16 +22 1022.0 957.7 +10.6 +19.1
07 17.06 ЮВ 1 н/о н/о +19.1 +13.1 68 +21 +21 комфорт 1021.2 957.6
08 17.06 С 1 н/о н/о +19.3 +12.4 64 +22 +22 комфорт 1021.0 957.4
09 17.06 В 1 10 км 5/0
[Ci sp]
+20.1 +13.1 64 +23 +39 комфорт 1020.9 957.5
10 17.06 штиль 0 н/о н/о +21.3 +12.8 58 +24 +24 комфорт 1020.2 957.1
11 17.06 В 1 н/о н/о +21.1 +12.6 58 +23 +23 комфорт 1020.3 957.1
12 17.06 В 1 н/о н/о +22.0 +12.5 55 +25 +25 комфорт 1019.9 956.9
13 17.06 В 2 н/о н/о +22.0 +12.9 56 +25 +25 комфорт 1019.8 956.8
15 17.06 В 1 н/о н/о +23.1 +12.8 52 +26 +26 жарко 1018.2 955.6
17 17.06 В 1 н/о н/о +22.3 +13.0 56 +25 +25 комфорт 1018.0 955.2
18 17.06 В 1 н/о н/о +21.2 +13.3 61 +24 +24 комфорт 1018.1 955.1 +15.7 +24.0

 

Местоположение метеостанции Личау (Австрия): широта 48.95 долгота 15.03 высота над уровнем моря 555 м.

В архиве по умолчанию представлена погода в Личау за последнюю неделю. Архивные данные за месяц целиком и за предыдущие месяцы, начиная с января 2011 года, Вы можете получить, выбрав интересующий диапазон дат из раскрывающегося списка и нажав кнопку "Ввод!".


*Определитесь, кто Вы:
робот инопланетянин человек

Внимание! Время в таблицах - всемирное. Для получения местного времени необходимо прибавить поправку, которая равна 1 ч.

Смотрите также архив погоды в соседних городах и на ближайших метеорологических станциях:

Погода в Вайтре (Австрия) (30 км)
Погода в Цветле (Австрия) (39 км)
Погода в Аллентштайге (Австрия) (39 км)
Погода в Ческе-Будеёвице (Чехия) (41 км)
Погода в Церкви Мыслова (Чехия) (41 км)
Погода в Темелине (Чехия) (58 км)
Погода в Бернкопфе (Австрия) (62 км)
Погода в Гарс-ам-Кампе (Австрия) (62 км)
Погода в Кресин-Крамолине (Чехия) (70 км)
Погода в Реце (Австрия) (70 км)

Пояснения к столбцам:

Ветер - указаны скорость ветра в м/с - средняя за 10 мин, порывы в срок и между сроками (в фигурных скобках) и направление, откуда дует ветер: С - северный, СВ - северо-восточный, В - восточный, ЮВ - юго-восточный, Ю - южный, ЮЗ - юго-западный, З - западный, СЗ - северо-западный.
Видимость - горизонтальная дальность видимости в метрах или километрах. При видимости от 1 до 10 км при отсутствии осадков обычно наблюдается дымка, при ухудшении видимости до 1 км и менее - туман. В сухую погоду видимость может ухудшаться дымом, пылью или мглою.
Явления - указаны атмосферные явления, наблюдавшиеся в срок или в последний час перед сроком; фигурными скобками обозначены явления, наблюдавшиеся между сроками (за 1-3 часа до срока); квадратными скобками обозначены град или гололедные отложения с указанием их диаметра в мм.
Облачность - указаны через наклонную черту общая и нижняя облачность в баллах и высота нижней границы облаков в метрах; квадратными скобками обозначены формы облаков: Ci - перистые, Cs - перисто-слоистые, Cc - перисто-кучевые, Ac - высококучевые, As - высокослоистые, Sc - слоисто-кучевые, Ns - слоисто-дождевые, Cu - кучевые, Cb - кучево-дождевые. Подробнее классификацию облаков см. в Атласе облаков (PDF).
T - Температура воздуха - температура, измеренная на высоте 2 м над землей.
Td - Температура точки росы - температура, при понижении до которой содержащийся в воздухе водяной пар достигнет насыщения.
f - Относительная влажность воздуха - влажноcть воздуха, измеренная на высоте 2 м над землей.
Te - Эффективная температура - температура, которую ощущает одетый по сезону человек в тени. Характеристика душности погоды. При расчете учитывается влияние влажности воздуха и скорости ветра на теплоощущения человека.
Tes - Эффективная температура на солнце - температура, которую ощущает человек, с поправкой на солнечный нагрев. Характеристика знойности погоды. Зависит от высоты солнца над горизонтом, облачности и скорости ветра. Ночью, в пасмурную погоду, а также при ветре 12 м/с и более поправка равна нулю.
P - Атмосферное давление - приведенное к уровню моря атмосферное давление.
Po - Атмосферное давление - измеренное на уровне метеостанции атмосферное давление.
Tmin - Минимальная температура - минимум температуры воздуха на высоте 2 м над землей.
Tmax - Максимальная температура - максимум температуры воздуха на высоте 2 м над землей.
R - Количество осадков - Количество выпавших осадков за период времени, мм. При наведении курсора мыши на число - период времени, за который выпало указанное количество осадков.
R24 - Количество осадков - Количество выпавших осадков за 24 часа, мм.
S - Снежный покров - Высота снежного покрова, см. При наведении курсора мыши на число - состояние снежного покрова и степень покрытия местности в баллах.